This demonstration page uses our WeatherBlox Daily Observations layout. Learn more.

Left ArrowRight Arrow

44.89941, -97.11507

Hourly Observations for June 25, 2018

Temp ( °F °C ) Dew Point ( °F °C ) Humidity (%) Winds ( mph kmh ) Pressure ( in mb ) Visibility ( mi km ) Precip ( " mm )
12:53 am 00:53 Clear 65 18.3 63 17.2 93 93 SE 7 11 29.93 1014 10 16 0.00 0.00
1:53 am 01:53 Mostly Cloudy 65 18.3 63 17.2 93 93 SSE 7 11 29.95 1014 10 16 0.00 0.00
2:53 am 02:53 Mostly Clear 65 18.3 63 17.2 93 93 SE 5 7 29.91 1013 10 16 0.00 0.00
3:53 am 03:53 Clear 63 17.2 62 16.7 97 97 SSE 6 9 29.93 1014 10 16 0.00 0.00
4:53 am 04:53 Clear 63 17.2 62 16.7 97 97 E 7 11 29.94 1014 10 16 0.00 0.00
5:53 am 05:53 Mostly Sunny 62 16.7 62 16.7 100 100 ESE 6 9 29.97 1015 10 16 0.00 0.00
6:48 am 06:48 Cloudy 63 17 63 17 100 100 E 8 13 29.94 1014 10 16 0.00 0.00
6:53 am 06:53 Cloudy 63 17.2 63 17.2 100 100 E 8 13 29.99 1016 10 16 0.00 0.00
7:07 am 07:07 Cloudy 63 17.2 63 17.2 100 100 ESE 6 9 29.94 1014 10 16 0.00 0.00
7:53 am 07:53 Mostly Cloudy 64 17.8 63 17.2 96 96 ESE 8 13 29.99 1016 10 16 0.00 0.00
8:53 am 08:53 Cloudy 65 18.3 63 17.2 93 93 SE 10 17 29.99 1016 10 16 0.00 0.00
9:53 am 09:53 Cloudy 67 19.4 63 17.2 87 87 ESE 9 15 29.98 1015 10 16 0.00 0.03
10:53 am 10:53 Mostly Cloudy 70 21.1 62 16.7 76 76 ESE 13 20 29.98 1015 10 16 0.00 0.00
11:39 am 11:39 Cloudy 70 21.1 63 17.2 79 79 SE 16 26 29.91 1013 10 16 0.00 0.00
11:53 am 11:53 Cloudy 70 21.1 63 17.2 79 79 ESE 12 19 29.98 1015 10 16 0.00 0.00
12:43 pm 12:43 Cloudy with Light Rain 68 20 65 18.3 90 90 SE 9 15 29.94 1014 10 16 0.00 0.03
12:53 pm 12:53 Cloudy with Light Rain 67 19.4 66 18.9 97 97 ESE 10 17 29.96 1015 10 16 0.00 0.03
1:35 pm 13:35 Cloudy 68 20 66 18.9 93 93 SE 12 19 29.94 1014 10 16 0.00 0.03
1:53 pm 13:53 Cloudy 69 20.6 66 18.9 90 90 SE 9 15 29.96 1014 10 16 0.00 0.03
2:53 pm 14:53 Cloudy 71 21.7 66 18.9 84 84 SE 14 22 29.93 1014 10 16 0.00 0.00
3:07 pm 15:07 Cloudy 71 21.7 66 18.9 84 84 SE 15 24 29.88 1012 10 16 0.00 0.00
3:23 pm 15:23 Cloudy 71 21.7 66 18.9 84 84 SE 8 13 29.88 1012 10 16 0.00 0.00
3:53 pm 15:53 Cloudy 71 21.7 66 18.9 84 84 SE 9 15 29.94 1014 10 16 0.00 0.00
4:16 pm 16:16 Cloudy 71 21.7 66 18.9 84 84 ESE 10 17 29.91 1013 10 16 0.00 0.00
4:26 pm 16:26 Cloudy with Light Rain 72 22.2 66 18.9 82 82 ESE 10 17 29.91 1013 10 16 0.00 0.03
4:34 pm 16:34 Cloudy 72 22.2 67 19.4 84 84 ESE 9 15 29.91 1013 10 16 0.00 0.03
4:53 pm 16:53 Cloudy with Light Rain 71 21.7 68 20 90 90 ESE 7 11 29.93 1014 10 16 0.01 0.25
5:53 pm 17:53 Mostly Cloudy 72 22.2 66 18.9 82 82 E 8 13 29.93 1013 10 16 0.00 0.03
6:53 pm 18:53 Mostly Sunny 73 22.8 60 15.6 64 64 ESE 13 20 29.92 1013 10 16 0.00 0.00
7:53 pm 19:53 Mostly Sunny 72 22.2 61 16.1 68 68 ESE 9 15 29.92 1013 10 16 0.00 0.00
8:53 pm 20:53 Sunny 70 21.1 62 16.7 76 76 E 8 13 29.91 1013 10 16 0.00 0.00
9:53 pm 21:53 Clear 69 20.6 62 16.7 78 78 E 6 9 29.90 1013 10 16 0.00 0.00
10:53 pm 22:53 Clear 68 20 62 16.7 81 81 E 7 11 29.89 1012 10 16 0.00 0.00
11:53 pm 23:53 Mostly Clear 67 19.4 62 16.7 84 84 E 6 9 29.88 1012 10 16 0.00 0.00

Powered by AerisWeather